Weather History for KOSH - November, 2013

Change the Weather History Date:

Friday, November 8, 2013

  Actual Average Record
Temperature  
Mean Temperature 35 °F -  
Max Temperature 44 °F 46 °F 72 °F (1999)
Min Temperature 26 °F 29 °F 1 °F (1991)
Degree Days  
Heating Degree Days 30    
Moisture  
Dew Point 27 °F    
Average Humidity 74    
Maximum Humidity 93    
Minimum Humidity 58    
Precipitation  
Precipitation 0.01 in - - ()
Sea Level Pressure  
Sea Level Pressure 30.15 in    
Wind  
Wind Speed 7 mph (SSW)    
Max Wind Speed 17 mph    
Max Gust Speed 25 mph    
Visibility 7 miles    
Events Rain    
Averages and records for this station are not official NWS values.
T = Trace of Precipitation, MM = Missing Value Source: NWS Daily Summary

Daily Weather History Graph

Daily Weather History Graph

Search for Another Location

Airport or City:

Trip Planner

Search our weather history database for the weather conditions in past years. The results will help you decide how hot, cold, wet, or windy it might be!

Date:

Astronomy

Nov. 08, 2013 Rise Set
Actual Time 6:40 AM CST 4:35 PM CST
Civil Twilight 6:09 AM CST 5:05 PM CST
Nautical Twilight 5:35 AM CST 5:40 PM CST
Astronomical Twilight 5:01 AM CST 6:14 PM CST
Moon 11:35 AM CST (11/8) 9:56 PM CST (11/8)
Length of Visible Light 10h 56m
Length of Day
9h 54m
Waxing Crescent, 33% of the Moon is Illuminated
Nov 8
Waxing Crescent
Nov 9
First Quarter
Nov 17
Full
Nov 25
Last Quarter
Dec 2
New

Hourly Weather History & Observations

Time (CST) Temp. Windchill Dew Point Humidity Pressure Visibility Wind Dir Wind Speed Gust Speed Precip Events Conditions
12:53 AM 28.0 °F 21.7 °F 24.1 °F 85% 30.23 in 6.0 mi West 5.8 mph - N/A   Clear
1:53 AM 28.0 °F 21.7 °F 24.1 °F 85% 30.24 in 5.0 mi West 5.8 mph - N/A   Clear
2:53 AM 28.0 °F 20.8 °F 24.1 °F 85% 30.24 in 5.0 mi West 6.9 mph - N/A   Clear
3:53 AM 27.0 °F 21.6 °F 24.1 °F 89% 30.26 in 4.0 mi West 4.6 mph - N/A   Clear
4:53 AM 27.0 °F 23.0 °F 23.0 °F 85% 30.27 in 4.0 mi WSW 3.5 mph - N/A   Clear
5:53 AM 27.0 °F 21.6 °F 24.1 °F 89% 30.27 in 4.0 mi WSW 4.6 mph - N/A   Clear
6:53 AM 27.0 °F 23.0 °F 24.1 °F 89% 30.28 in 3.0 mi SSW 3.5 mph - N/A   Clear
7:10 AM 26.6 °F 22.6 °F 23.0 °F 86% 30.24 in 2.5 mi SSW 3.5 mph - N/A   Clear
7:19 AM 26.6 °F - 24.8 °F 93% 30.25 in 3.0 mi Calm Calm - N/A   Clear
7:53 AM 28.9 °F 25.2 °F 26.1 °F 89% 30.30 in 3.0 mi South 3.5 mph - N/A   Clear
8:53 AM 32.0 °F 26.4 °F 28.0 °F 85% 30.30 in 4.0 mi SSW 5.8 mph - N/A   Clear
9:53 AM 35.1 °F 29.3 °F 28.0 °F 76% 30.30 in 6.0 mi SW 6.9 mph - N/A   Haze
10:53 AM 37.9 °F 32.1 °F 28.0 °F 68% 30.26 in 8.0 mi SSW 8.1 mph - N/A   Clear
11:53 AM 39.9 °F 33.4 °F 28.9 °F 65% 30.22 in 9.0 mi South 10.4 mph - N/A   Clear
12:53 PM 41.0 °F 34.7 °F 28.0 °F 60% 30.19 in 10.0 mi SSW 10.4 mph - N/A   Clear
1:53 PM 39.9 °F 33.4 °F 30.0 °F 68% 30.17 in 9.0 mi South 10.4 mph - N/A   Mostly Cloudy
2:53 PM 41.0 °F 36.4 °F 28.9 °F 62% 30.14 in 10.0 mi SSE 6.9 mph - N/A   Mostly Cloudy
3:53 PM 41.0 °F 35.8 °F 30.0 °F 65% 30.12 in 10.0 mi SSE 8.1 mph - N/A   Overcast
4:53 PM 41.0 °F 36.4 °F 30.0 °F 65% 30.09 in 10.0 mi SSE 6.9 mph - N/A   Mostly Cloudy
5:53 PM 41.0 °F 34.7 °F 30.0 °F 65% 30.06 in 10.0 mi SE 10.4 mph - N/A   Clear
6:53 PM 41.0 °F 34.7 °F 30.0 °F 65% 30.04 in 10.0 mi SSE 10.4 mph - N/A   Clear
7:53 PM 41.0 °F 34.3 °F 30.0 °F 65% 30.01 in 10.0 mi SSE 11.5 mph - N/A   Mostly Cloudy
8:53 PM 43.0 °F 35.1 °F 30.0 °F 60% 29.96 in 10.0 mi South 17.3 mph 23.0 mph N/A   Overcast
9:53 PM 44.1 °F 37.1 °F 30.0 °F 58% 29.92 in 10.0 mi South 15.0 mph - N/A   Overcast
10:53 PM 44.1 °F 36.5 °F 30.0 °F 58% 29.85 in 10.0 mi South 17.3 mph 25.3 mph 0.00 in Rain Light Rain
11:53 PM 43.0 °F 35.7 °F 33.1 °F 68% 29.80 in 10.0 mi South 15.0 mph - 0.01 in Rain Light Rain